Sister Bay, Wisconsin, United States (54234)
Lat: 45.19N, Lon: 87.12W
Wx Zone: WIZ022
Local Info
Past Weather Observations for Saturday, April 23, 2016

NOTE: This archive is for the closest National Weather Service station to Sister Bay. Information may differ from the station used for current weather conditions.

Click here for Long-term Archive

Time Weather Temperature Dewpoint Humidity Pressure Winds Precip Visibility
23:55
Overcast
Rain
41°F / 5°C 36°F / 2°C 81% 30.06 in
(1018 mb)
SE 4.6 mph
(SE 7 kph)
0.03 in
(0.76 mm)
10SM
23:35
Overcast
Light Rain
43°F / 6°C 36°F / 2°C 76% 30.06 in
(1018 mb)
SE 8.1 mph
(SE 13 kph)
0.01 in
(0.25 mm)
10SM
23:15
Overcast
Light Rain
43°F / 6°C 34°F / 1°C 71% 30.06 in
(1018 mb)
SE 6.9 mph
(SE 11 kph)
- 10SM
22:55
Overcast
Light Rain
43°F / 6°C 34°F / 1°C 71% 30.06 in
(1018 mb)
SE 6.9 mph
(SE 11 kph)
- 10SM
22:35
Overcast
Drizzle
45°F / 7°C 34°F / 1°C 66% 30.06 in
(1018 mb)
ESE 4.6 mph
(ESE 7 kph)
- 10SM
22:15
Overcast
Drizzle
45°F / 7°C 32°F / 0°C 61% 30.06 in
(1018 mb)
SE 6.9 mph
(SE 11 kph)
- 10SM
21:55
Overcast
45°F / 7°C 32°F / 0°C 61% 30.06 in
(1018 mb)
SE 8.1 mph
(SE 13 kph)
- 10SM
21:35
Overcast
46°F / 8°C 32°F / 0°C 57% 30.06 in
(1018 mb)
SE 8.1 mph
(SE 13 kph)
- 10SM
21:15
Overcast
46°F / 8°C 32°F / 0°C 57% 30.06 in
(1018 mb)
SE 8.1 mph
(SE 13 kph)
- 10SM
20:55
Partly Cloudy
46°F / 8°C 34°F / 1°C 62% 30.06 in
(1018 mb)
SE 8.1 mph
(SE 13 kph)
- 10SM
20:35
Partly Cloudy
46°F / 8°C 34°F / 1°C 62% 30.06 in
(1018 mb)
SE 9.2 mph
(SE 15 kph)
- 10SM
20:15
Partly Cloudy
48°F / 9°C 36°F / 2°C 62% 30.06 in
(1018 mb)
SE 11.5 mph
(SE 19 kph)
- 10SM
19:55
Mostly Cloudy
48°F / 9°C 36°F / 2°C 62% 30.06 in
(1018 mb)
SE 15 mph
(SE 24 kph)
- 10SM
19:35
Overcast
50°F / 10°C 37°F / 3°C 62% 30.06 in
(1018 mb)
SE 16.1 mph
(SE 26 kph)
- 10SM
19:15
Overcast
52°F / 11°C 37°F / 3°C 58% 30.06 in
(1018 mb)
SE 12.7 mph
(SE 20 kph)
- 10SM
18:55
Overcast
52°F / 11°C 37°F / 3°C 58% 30.04 in
(1017 mb)
SE 8.1 mph
(SE 13 kph)
- 10SM
18:35
Overcast
52°F / 11°C 37°F / 3°C 58% 30.04 in
(1017 mb)
SE 8.1 mph
(SE 13 kph)
- 10SM
18:15
Overcast
54°F / 12°C 37°F / 3°C 54% 30.06 in
(1018 mb)
SE 6.9 mph
(SE 11 kph)
- 10SM
17:55
Partly Cloudy
54°F / 12°C 36°F / 2°C 51% 30.04 in
(1017 mb)
SE 6.9 mph
(SE 11 kph)
- 10SM
17:35
Partly Cloudy
54°F / 12°C 37°F / 3°C 54% 30.04 in
(1017 mb)
Calm - 10SM
17:15
Clear
55°F / 13°C 37°F / 3°C 51% 30.04 in
(1017 mb)
SE 9.2 mph
(SE 15 kph)
- 10SM
16:55
Clear
55°F / 13°C 37°F / 3°C 51% 30.04 in
(1017 mb)
SSE 11.5 mph
(SSE 19 kph)
- 10SM
16:35
Clear
55°F / 13°C 37°F / 3°C 51% 30.04 in
(1017 mb)
SSE 9.2 mph
(SSE 15 kph)
- 10SM
16:15
Clear
55°F / 13°C 37°F / 3°C 51% 30.06 in
(1018 mb)
SSE 10.4 mph
(SSE 17 kph)
- 10SM
15:55
Clear
55°F / 13°C 37°F / 3°C 51% 30.06 in
(1018 mb)
SE 9.2 mph
(SE 15 kph)
- 10SM
15:35
Partly Cloudy
55°F / 13°C 37°F / 3°C 51% 30.06 in
(1018 mb)
S 8.1 mph
(S 13 kph)
- 10SM
15:15
Overcast
55°F / 13°C 36°F / 2°C 47% 30.09 in
(1019 mb)
SE 4.6 mph
(SE 7 kph)
- 10SM
14:55
Overcast
54°F / 12°C 37°F / 3°C 54% 30.09 in
(1019 mb)
S 9.2 mph
(S 15 kph)
- 10SM
14:35
Overcast
55°F / 13°C 36°F / 2°C 47% 30.09 in
(1019 mb)
S 11.5 mph
(S 19 kph)
- 10SM
14:15
Overcast
55°F / 13°C 36°F / 2°C 47% 30.09 in
(1019 mb)
SW 4.6 mph
(SW 7 kph)
- 10SM
13:55
Mostly Cloudy
55°F / 13°C 34°F / 1°C 44% 30.09 in
(1019 mb)
Calm - 10SM
13:35
Mostly Cloudy
55°F / 13°C 34°F / 1°C 44% 30.12 in
(1020 mb)
S 9.2 mph
(S 15 kph)
- 10SM
13:15
Overcast
54°F / 12°C 32°F / 0°C 44% 30.12 in
(1020 mb)
S 8.1 mph
(S 13 kph)
- 10SM
12:55
Overcast
52°F / 11°C 34°F / 1°C 50% 30.12 in
(1020 mb)
S 8.1 mph
(S 13 kph)
- 10SM
12:35
Overcast
52°F / 11°C 34°F / 1°C 50% 30.15 in
(1021 mb)
S 8.1 mph
(S 13 kph)
- 10SM
12:15
Overcast
52°F / 11°C 30°F / -1°C 44% 30.15 in
(1021 mb)
S 6.9 mph
(S 11 kph)
- 10SM
11:55
Mostly Cloudy
52°F / 11°C 30°F / -1°C 44% 30.15 in
(1021 mb)
SSE 9.2 mph
(SSE 15 kph)
- 10SM
11:35
Partly Cloudy
52°F / 11°C 28°F / -2°C 41% 30.15 in
(1021 mb)
SSE 6.9 mph
(SSE 11 kph)
- 10SM
11:15
Partly Cloudy
52°F / 11°C 28°F / -2°C 41% 30.18 in
(1022 mb)
Calm - 10SM
10:55
Partly Cloudy
50°F / 10°C 25°F / -4°C 37% 30.18 in
(1022 mb)
S 4.6 mph
(S 7 kph)
- 10SM
10:35
Partly Cloudy
50°F / 10°C 23°F / -5°C 35% 30.18 in
(1022 mb)
SSE 9.2 mph
(SSE 15 kph)
- 10SM
10:15
Mostly Cloudy
48°F / 9°C 19°F / -7°C 32% 30.21 in
(1023 mb)
SSE 6.9 mph
(SSE 11 kph)
- 10SM
09:55
Overcast
46°F / 8°C 19°F / -7°C 34% 30.21 in
(1023 mb)
Calm - 10SM
09:35
Mostly Cloudy
46°F / 8°C 18°F / -8°C 32% 30.21 in
(1023 mb)
SSE 8.1 mph
(SSE 13 kph)
- 10SM
09:15
Clear
45°F / 7°C 14°F / -10°C 29% 30.21 in
(1023 mb)
SSE 3.5 mph
(SSE 6 kph)
- 10SM
08:55
Clear
43°F / 6°C 14°F / -10°C 31% 30.21 in
(1023 mb)
Calm - 10SM
08:35
Clear
41°F / 5°C 18°F / -8°C 39% 30.21 in
(1023 mb)
Calm - 10SM
08:15
Clear
39°F / 4°C 18°F / -8°C 42% 30.21 in
(1023 mb)
SE 3.5 mph
(SE 6 kph)
- 10SM
07:55
Clear
39°F / 4°C 14°F / -10°C 36% 30.21 in
(1023 mb)
SE 4.6 mph
(SE 7 kph)
- 10SM
07:35
Clear
37°F / 3°C 18°F / -8°C 45% 30.24 in
(1024 mb)
Calm - 10SM
07:15
Clear
37°F / 3°C 16°F / -9°C 41% 30.21 in
(1023 mb)
Calm - 10SM
06:55
Clear
36°F / 2°C 16°F / -9°C 44% 30.21 in
(1023 mb)
Calm - 10SM
06:35
Clear
36°F / 2°C 18°F / -8°C 48% 30.21 in
(1023 mb)
Calm - 10SM
06:15
Clear
34°F / 1°C 19°F / -7°C 56% 30.21 in
(1023 mb)
E 3.5 mph
(E 6 kph)
- 10SM
05:55
Clear
34°F / 1°C 19°F / -7°C 56% 30.21 in
(1023 mb)
E 3.5 mph
(E 6 kph)
- 10SM
05:35
Clear
32°F / 0°C 21°F / -6°C 64% 30.21 in
(1023 mb)
SE 3.5 mph
(SE 6 kph)
- 10SM
05:15
Clear
32°F / 0°C 21°F / -6°C 64% 30.21 in
(1023 mb)
E 4.6 mph
(E 7 kph)
- 10SM
04:55
Clear
30°F / -1°C 23°F / -5°C 75% 30.21 in
(1023 mb)
Calm - 10SM
04:35
Clear
30°F / -1°C 25°F / -4°C 80% 30.18 in
(1022 mb)
Calm - 10SM
04:15
Clear
32°F / 0°C 23°F / -5°C 69% 30.18 in
(1022 mb)
Calm - 10SM
03:55
Clear
32°F / 0°C 23°F / -5°C 69% 30.18 in
(1022 mb)
SE 4.6 mph
(SE 7 kph)
- 10SM
03:35
Clear
32°F / 0°C 25°F / -4°C 75% 30.18 in
(1022 mb)
Calm - 10SM
03:15
Clear
32°F / 0°C 28°F / -2°C 87% 30.18 in
(1022 mb)
SE 4.6 mph
(SE 7 kph)
- 10SM
02:55
Clear
32°F / 0°C 28°F / -2°C 87% 30.18 in
(1022 mb)
Calm - 10SM
02:35
Clear
32°F / 0°C 28°F / -2°C 87% 30.18 in
(1022 mb)
Calm - 10SM
02:15
Clear
32°F / 0°C 28°F / -2°C 87% 30.18 in
(1022 mb)
SE 3.5 mph
(SE 6 kph)
- 10SM
01:55
Clear
34°F / 1°C 28°F / -2°C 81% 30.18 in
(1022 mb)
SE 3.5 mph
(SE 6 kph)
- 10SM
01:35
Clear
34°F / 1°C 28°F / -2°C 81% 30.18 in
(1022 mb)
SE 4.6 mph
(SE 7 kph)
- 10SM
01:15
Clear
36°F / 2°C 28°F / -2°C 75% 30.18 in
(1022 mb)
SE 5.8 mph
(SE 9 kph)
- 10SM
00:55
Clear
36°F / 2°C 30°F / -1°C 81% 30.21 in
(1023 mb)
SE 4.6 mph
(SE 7 kph)
- 10SM
00:35
Clear
36°F / 2°C 30°F / -1°C 81% 30.18 in
(1022 mb)
SE 8.1 mph
(SE 13 kph)
- 10SM
00:15
Clear
36°F / 2°C 30°F / -1°C 81% 30.21 in
(1023 mb)
SE 6.9 mph
(SE 11 kph)
- 10SM
Time Weather Temperature Dewpoint Humidity Pressure Winds Precip Visibility


Weather for websites

WeatherForYou.com, LLC is not responsible for any damages or problems caused by this service. Current weather conditions are obtained from the closest station including government and personal stations which may have varying degrees of accuracy. Weather forecasts are derived from the NOAA NDFD. Like all things, this site belongs to Jesus Christ... He just trusts us to maintain it. If you have any questions or comments email webmaster@weatherforyou.com

Copyright © 2016, WeatherForYou.com LLC. All rights reserved.